sat.trackr.live / text

‹ back to catalog

STARLINK-34423

NORAD 64460 · 2025-130Y

PAYLOAD ACTIVE UNKNOWN

§ Identity

Operator
Country
US
Launch date
2025-06-18
Launch site
AFETR
Launch vehicle
Mass (kg)
RCS (m²)

Purposes: comms

External: N2YO · Heavens-Above · Gunter

§ Orbital elements

Epoch: 2026-09-20T22:45:31.759200Z

Period
93.85 min
Inclination
53.1577°
Eccentricity
0.0002131
Mean motion
15.34396999 rev/d
Perigee alt
461.3 km
Apogee alt
464.2 km
Semi-major
6,840.8 km
B*
3.7297e-4
RAAN
259.7651°
Arg perigee
38.0264°
Mean anomaly
322.0889°
Rev number
7,062

§ Raw data

STARLINK-344231 64460U 25130Y   26263.94828425  .00012245  00000+0  37297-3 0  99962 64460  53.1577 259.7651 0002131  38.0264 322.0889 15.34396999 70620

JSON: /api/v1/satellites/64460 · /tle

For live sub-satellite position, see the globe view (requires WebGL).

§ Visibility from observer

Set your observer location to see the next 7 days of passes ≥ 10°. The values pass through the URL so the page stays shareable.

No JS? Fill the form by hand. The geolocation button needs JavaScript.